Date,TemperatureHighF,TemperatureAvgF,TemperatureLowF,DewpointHighF,DewpointAvgF,DewpointLowF,HumidityHigh,HumidityAvg,HumidityLow,PressureMaxIn,PressureMinIn,WindSpeedMaxMPH,WindSpeedAvgMPH,GustSpeedMaxMPH,PrecipitationSumIn
2013-8-1,0.0,0.0,0.0,0.0,0.0,0.0,0,0,100,30.00,29.83,10,1,12,0.00
2013-8-2,0.0,0.0,0.0,0.0,0.0,0.0,0,0,100,29.83,29.73,12,1,15,0.00
2013-8-3,0.0,0.0,0.0,0.0,0.0,0.0,0,0,100,29.82,29.72,17,1,17,0.00
2013-8-4,0.0,0.0,0.0,0.0,0.0,0.0,0,0,100,29.85,29.71,11,1,12,0.00
2013-8-5,0.0,0.0,0.0,0.0,0.0,0.0,0,0,100,30.01,29.83,15,1,20,0.00
2013-8-6,0.0,0.0,0.0,0.0,0.0,0.0,0,0,100,30.10,30.00,8,0,11,0.00
2013-8-7,0.0,0.0,0.0,0.0,0.0,0.0,0,0,100,30.14,30.05,11,1,14,0.00
2013-8-8,77.3,17.7,0.0,72.2,17.2,0.0,95,23,84,30.08,29.96,11,1,15,0.00
2013-8-9,74.1,71.2,69.9,73.5,70.1,69.1,98,96,95,29.97,29.69,3,0,6,0.95
2013-8-10,82.7,71.6,63.1,69.3,64.1,57.3,98,80,47,29.97,29.74,16,1,19,0.01
2013-8-11,79.0,65.8,53.2,63.8,57.6,51.6,97,77,48,30.04,29.94,11,1,13,0.00
2013-8-12,81.6,66.9,56.5,66.8,59.8,55.3,98,80,49,29.98,29.86,9,0,11,0.00
2013-8-13,72.8,66.9,63.0,69.7,65.3,61.4,97,95,81,29.88,29.64,5,0,7,0.04
2013-8-14,74.4,65.3,58.6,62.6,57.0,52.7,97,76,49,29.92,29.62,18,2,21,0.00
2013-8-15,76.8,62.9,51.2,60.7,53.9,49.8,97,75,45,30.07,29.91,12,1,18,0.00
2013-8-16,79.2,64.2,51.5,62.9,56.4,50.1,97,78,46,30.15,30.06,11,1,14,0.00
2013-8-17,78.6,65.0,54.6,69.3,59.5,53.4,97,84,60,30.24,30.15,10,0,11,0.00
2013-8-18,76.0,66.0,55.9,68.6,61.8,54.5,97,87,66,30.24,30.03,7,0,8,0.00
2013-8-19,79.3,68.4,58.0,68.6,62.3,56.6,97,82,56,30.04,29.90,9,1,12,0.00
2013-8-20,84.3,69.8,60.9,73.3,63.7,59.3,96,82,49,30.04,29.93,7,0,7,0.00
2013-8-21,86.3,71.8,59.7,74.6,65.8,58.5,97,83,53,30.10,29.97,9,0,10,0.00
2013-8-22,85.0,72.8,61.9,75.2,68.1,60.8,98,86,57,29.98,29.76,12,1,15,0.00
2013-8-23,79.9,71.2,62.4,69.4,61.6,50.9,96,73,48,30.09,29.77,12,1,13,0.00
2013-8-24,77.5,63.1,52.5,58.9,52.4,48.1,93,70,38,30.29,30.09,8,0,9,0.00
2013-8-25,82.2,63.9,50.6,63.4,54.7,48.9,97,76,39,30.32,30.16,8,1,14,0.00
2013-8-26,81.0,69.7,62.7,69.8,64.6,58.6,94,84,64,30.14,29.81,13,1,17,0.00
2013-8-27,85.3,73.5,65.6,72.4,68.2,63.7,97,85,60,29.86,29.77,11,1,13,0.00
2013-8-28,85.1,70.2,60.9,74.1,65.8,59.8,98,87,63,29.94,29.79,10,1,12,0.00
2013-8-29,66.1,64.2,61.0,64.9,62.1,58.8,96,93,89,30.04,29.91,10,1,12,0.00
2013-8-30,85.2,66.9,58.0,72.0,63.0,56.2,97,88,61,29.98,29.76,9,0,10,0.00
2013-8-31,78.7,72.3,67.3,76.2,70.9,65.9,98,96,91,29.78,29.72,7,0,10,0.39